{"data":{"norad_id":61216,"epoch":"2026-09-21T20:11:09.540960Z","epoch_age_seconds":76216,"freshness":"FRESH","line1":"1 61216U 24171S   26264.84108265  .00000087  00000+0  14565-4 0  9994","line2":"2 61216  53.1597 130.3851 0001532  70.9197 289.1970 15.31701483112411","mean_motion":15.31701483,"eccentricity":0.0001532,"inclination_deg":53.1597,"raan_deg":130.3851,"arg_perigee_deg":70.9197,"mean_anomaly_deg":289.197,"bstar":1.4565e-5,"rev_number":11241,"period_min":94.013096937114,"perigee_km":469.68632720497,"apogee_km":471.78482176179,"semimajor_km":6848.8725744834,"source":"CELESTRAK","updated_at":"2026-09-22T09:00:49.342722Z"}}